Location: Kirtland Hills
(41.6239°N, 81.3071°W)
Time: 09:40:21
(UTC+00:00)

Cosmos 1825 - Pass Details

Date: 29 October 2020
Orbit: 502 x 508 km, 82.5° (Epoch: 26 November)

Event Time Altitude Azimuth Distance (km) Brightness Sun altitude
Rises 23:30:35 0° 3° (N) 2,620 5.7 -13.2°
Reaches altitude 10° 23:32:57 10° 16° (NNE) 1,729 4.6 -13.6°
Maximum altitude 23:36:13 27° 76° (ENE) 1,001 3.0 -14.2°
Enters shadow 23:36:54 25° 95° (E) 1,041 3.1 -14.3°
